www.pogodaiklimat.ru

Погода и климат >> Архив погоды >> Россия >> Архангельская область >> Малые Кармакулы


ПОГОДА в Малых Кармакулах

АРХИВ ПОГОДЫ в Малых Кармакулах

Время (UTC), дата Ветер
(напр.,м/с)
 
Видим.   Явления Облачность Т
(С)
Тd
(С)
f
(%)
Тe
(С)
Тes
(С)
Комфортность P
(гПа)
Po
(гПа)
Тmin
(С)
Tmax
(С)
R
(мм)
R24
(мм)
S
(см)
03 8.08 Ю 6 20 км {ливн. осадки} 10/4 200 м
[St Ac und]
+8.2 +8.0 99 +4 +4 998.0 996.3 +7.5 0.4
06 8.08 Ю 6 20 км в посл. час морось {ливн. осадки} 9/8 540 м
[Sc Ac trans]
+8.6 +8.0 96 +4 +5 998.5 996.8
09 8.08 ЮЗ 7
{11}
20 км {морось} 9/4 200 м
[Sc Ac trans]
+9.2 +7.6 90 +5 +6 999.0 997.3
12 8.08 ЮЗ 7
{10}
20 км {морось} 9/9 700 м
[Cu Sc]
+9.1 +7.7 91 +5 +5 999.0 997.3
15 8.08 Ю 8
{11}
10 км слабый ливневой дождь 10/10 420 м
[Cb cap]
+8.6 +8.2 97 +4 +4 998.5 996.8 +9.3 0.8
18 8.08 ЮЗ 8
{11}
20 км {ливн. осадки} 10/10 500 м
[Sc]
+8.2 +7.6 96 +3 +3 998.2 996.5
21 8.08 ЮЗ 7
{11}
4000 м дымка 10/10 540 м
[Sc]
+8.0 +7.4 96 +3 +3 998.5 996.8
00 9.08 З 8
{10}
20 км {ливн. осадки} 9/8 600 м
[Cu Sc Ac trans]
+7.3 +5.3 87 +2 +2 998.7 997.0
03 9.08 ЮЗ 8
{11}
20 км {ливн. осадки} 10/10 630 м
[Cu Sc]
+6.9 +5.6 91 +2 +2 998.9 997.2 +6.7 1
06 9.08 З 9
{13}
10 км слабый ливневой дождь 10/8 420 м
[Cb cap Ac und]
+6.9 +4.4 84 +1 +1 999.2 997.5 +6.4
09 9.08 З 10
{14}
10 км слабый ливневой дождь 10/10 300 м
[Cb cap]
+7.1 +6.4 95 +1 +1 999.4 997.7
12 9.08 З 10
{14}
10 км слабый ливневой дождь 10/10 270 м
[Cb cap]
+6.9 +6.2 95 +1 +1 1000.4 998.7
15 9.08 З 9
{14}
4000 м дымка {ливн. осадки} 9/6 480 м
[Sc Ac trans]
+6.9 +6.0 94 +1 +1 1001.2 999.5 +7.3 4
18 9.08 С 7
{10}
20 км {ливн. осадки} 10/10 720 м
[Sc]
+6.3 +4.0 85 +1 +1 1001.5 999.8
21 9.08 СЗ 4 20 км 10/10 630 м
[Sc]
+6.3 +2.9 79 +3 +3 1001.5 999.8
00 10.08 СЗ 6 20 км 10/10 570 м
[Sc]
+6.2 +3.8 85 +1 +1 1000.8 999.1
03 10.08 СЗ 8 10 км слабый ливневой дождь 10/10 200 м
[Cb cap]
+6.3 +5.6 95 +1 +1 999.6 997.9 0.6
06 10.08 СЗ 9
{12}
10 км слабый ливневой дождь 10/9 300 м
[Cb cap Ac und]
+6.5 +5.1 91 +1 +1 999.7 998.0
09 10.08 СЗ 9
{13}
20 км {ливн. осадки} 10/9 300 м
[St Ac und]
+6.4 +5.7 95 +1 +1 1000.2 998.5
12 10.08 СЗ 10
{14}
10 км слабый ливневой дождь 10/10 210 м
[Cb cap]
+6.1 +5.6 97 -0 -0 1001.0 999.3
15 10.08 СЗ 12
{17}
4000 м дымка {ливн. осадки} 10/8 480 м
[Sc Ac und]
+6.3 +4.5 88 -0 -0 1001.6 999.9 +6.8 0.9
18 10.08 СЗ 10
{17}
10 км слабый ливневой дождь 10/10 210 м
[Cb cap]
+6.1 +5.4 95 -0 -0 1001.3 999.6
21 10.08 СЗ 9
{16}
10 км слабый ливневой дождь 10/10 240 м
[Cb cap]
+5.7 +5.5 99 -1 -1 1000.9 999.2
00 11.08 СЗ 9
{15}
4000 м слабая морось {ливн. осадки} 10/10 210 м
[St]
+5.7 +5.7 100 -1 -1 1000.6 998.9
03 11.08 СЗ 7
{13}
4000 м слабая морось 10/10 210 м
[St]
+5.7 +5.5 99 0 0 1000.0 998.3 +5.7 2
06 11.08 С 3
{10}
500 м туман {морось} ?/? +5.7 +5.5 99 +2 +2 1000.3 998.6
09 11.08 СЗ 4 500 м туман ?/? +5.7 +5.5 99 +2 +2 1000.6 998.9
12 11.08 С 4 4000 м дымка {туман} 10/10 120 м
[St]
+5.6 +5.4 99 +1 +1 1001.2 999.5
15 11.08 СЗ 5 500 м туман ?/? +5.9 +5.7 99 +1 +1 1001.2 999.5 +5.9 0.3
18 11.08 С 6 2000 м дымка {туман} 10/10 90 м
[St]
+5.7 +5.5 99 +1 +1 1001.3 999.6
21 11.08 С 5 500 м туман ?/? +5.4 +5.2 99 +1 +1 1001.1 999.4
00 12.08 СЗ 2 500 м туман ?/? +5.4 +5.2 99 +3 +3 1000.6 998.9
03 12.08 СЗ 1 500 м туман туман ?/? +5.7 +5.5 99 +4 +4 999.9 998.2 +5.4
06 12.08 СЗ 2 500 м туман ?/? +5.9 +5.7 99 +3 +3 998.8 997.1
09 12.08 З 3 2000 м дымка {туман} 10/10 150 м
[St]
+6.3 +5.9 97 +3 +3 998.6 996.9
12 12.08 З 3 2000 м дымка {туман} 10/10 120 м
[St]
+6.5 +6.1 97 +3 +3 998.5 996.8
15 12.08 СЗ 2 500 м туман ?/? +6.1 +5.9 99 +3 +3 997.7 996.0 +6.5
18 12.08 СЗ 3 2000 м дымка {туман} 10/10 180 м
[St]
+5.7 +5.5 99 +2 +2 997.6 995.9
21 12.08 С 4 4000 м дымка 10/10 100 м
[St]
+5.2 +4.7 97 +1 +1 997.0 995.3
00 13.08 СЗ 4 4000 м дымка 10/10 240 м
[St]
+5.5 +4.8 95 +1 +1 996.3 994.6
03 13.08 СЗ 5 4000 м дымка 10/10 200 м
[St]
+5.9 +5.4 97 +1 +1 995.4 993.7 +5.1
06 13.08 СЗ 4 10 км слабый ливневой дождь 10/9 330 м
[Cb cap Ac und]
+6.1 +5.6 97 +2 +2 994.6 992.9
09 13.08 СЗ 4 20 км {ливн. осадки} 10/10 270 м
[St]
+5.2 +4.3 94 +1 +1 994.2 992.5
12 13.08 С 6
{10}
20 км {ливн. осадки} 10/10 210 м
[St]
+5.3 +4.1 92 0 0 993.5 991.8
15 13.08 С 7
{10}
20 км 10/10 210 м
[St]
+4.3 +3.1 92 -2 -2 991.8 990.1 +6.1 0.3
18 13.08 С 7
{10}
20 км 10/10 240 м
[St]
+3.6 +2.6 93 -3 -3 991.7 989.9
21 13.08 С 7
{10}
20 км 10/10 210 м
[St]
+3.6 +3.1 97 -3 -3 991.0 989.2
00 14.08 С 8
{11}
20 км 10/10 240 м
[St]
+4.1 +2.9 92 -2 -2 990.0 988.2
03 14.08 СВ 3
{10}
20 км 9/8 300 м
[St Ac trans]
+4.6 +2.9 89 +1 +1 990.6 988.9 +3.5
06 14.08 С 9
{12}
20 км 9/6 540 м
[Sc Ac trans]
+6.6 +5.5 93 +1 +1 991.2 989.5
09 14.08 СЗ 7
{14}
4000 м дымка 10/10 210 м
[St]
+6.1 +5.4 95 +1 +1 993.0 991.3
12 14.08 СЗ 4 2000 м слабая морось 10/10 90 м
[St]
+5.9 +5.7 99 +2 +2 994.4 992.7
15 14.08 СЗ 5 500 м слабая морось {туман} ?/? +5.8 +5.6 99 +1 +1 995.5 993.8 +6.6 0.3
18 14.08 СЗ 4 500 м слабая морось {туман} ?/? +5.6 +4.9 95 +1 +1 996.9 995.2
21 14.08 СЗ 4 1000 м слабая морось {туман} 10/10 90 м
[St]
+5.5 +5.0 97 +1 +1 998.1 996.4
00 15.08 С 4 4000 м в посл. час морось {туман} 10/10 90 м
[St]
+5.1 +4.4 95 +1 +1 999.2 997.5

 

Местоположение метеостанции Малые Кармакулы (Архангельская область, Россия): широта 72.36 долгота 52.71 высота над уровнем моря 14 м.

В архиве по умолчанию представлена погода в Малых Кармакулах за последнюю неделю. Архивные данные за месяц целиком и за предыдущие месяцы, начиная с января 2011 года, Вы можете получить, выбрав интересующий диапазон дат из раскрывающегося списка и нажав кнопку "Ввод!".


*Определитесь, кто Вы:
робот инопланетянин человек

Внимание! Время в таблицах - всемирное. Для получения местного времени необходимо прибавить поправку, которая в Малых Кармакулах равна 3 ч.

Смотрите также архив погоды в соседних городах и на ближайших метеорологических станциях:

Погода в Имени Федорова (Ненецкий АО, Россия) (310 км)
Погода на Колгуевом Острове (Ненецкий АО, Россия) (341 км)
Погода в Ходоварихе (Ненецкий АО, Россия) (383 км)
Погода на Мысе Белый Нос (Ненецкий АО, Россия) (409 км)
Погода в Бугрино (Ненецкий АО, Россия) (415 км)
Погода в Амдерме (Ненецкий АО, Россия) (433 км)
Погода в Сенгейском Шаре (Ненецкий АО, Россия) (435 км)
Погода на Мысе Константиновском (Ненецкий АО, Россия) (436 км)
Погода в Варандее (Ненецкий АО, Россия) (440 км)
Погода в Нарьян-Маре (Ненецкий АО, Россия) (526 км)

Пояснения к столбцам:

Ветер - указаны скорость ветра в м/с - средняя за 10 мин, порывы в срок и между сроками (в фигурных скобках) и направление, откуда дует ветер: С - северный, СВ - северо-восточный, В - восточный, ЮВ - юго-восточный, Ю - южный, ЮЗ - юго-западный, З - западный, СЗ - северо-западный.
Видимость - горизонтальная дальность видимости в метрах или километрах. При видимости от 1 до 10 км при отсутствии осадков обычно наблюдается дымка, при ухудшении видимости до 1 км и менее - туман. В сухую погоду видимость может ухудшаться дымом, пылью или мглою.
Явления - указаны атмосферные явления, наблюдавшиеся в срок или в последний час перед сроком; фигурными скобками обозначены явления, наблюдавшиеся между сроками (за 1-3 часа до срока); квадратными скобками обозначены град или гололедные отложения с указанием их диаметра в мм.
Облачность - указаны через наклонную черту общая и нижняя облачность в баллах и высота нижней границы облаков в метрах; квадратными скобками обозначены формы облаков: Ci - перистые, Cs - перисто-слоистые, Cc - перисто-кучевые, Ac - высококучевые, As - высокослоистые, Sc - слоисто-кучевые, Ns - слоисто-дождевые, Cu - кучевые, Cb - кучево-дождевые. Подробнее классификацию облаков см. в Атласе облаков (PDF).
T - Температура воздуха - температура, измеренная на высоте 2 м над землей.
Td - Температура точки росы - температура, при понижении до которой содержащийся в воздухе водяной пар достигнет насыщения.
f - Относительная влажность воздуха - влажноcть воздуха, измеренная на высоте 2 м над землей.
Te - Эффективная температура - температура, которую ощущает одетый по сезону человек в тени. Характеристика душности погоды. При расчете учитывается влияние влажности воздуха и скорости ветра на теплоощущения человека.
Tes - Эффективная температура на солнце - температура, которую ощущает человек, с поправкой на солнечный нагрев. Характеристика знойности погоды. Зависит от высоты солнца над горизонтом, облачности и скорости ветра. Ночью, в пасмурную погоду, а также при ветре 12 м/с и более поправка равна нулю.
P - Атмосферное давление - приведенное к уровню моря атмосферное давление.
Po - Атмосферное давление - измеренное на уровне метеостанции атмосферное давление.
Tmin - Минимальная температура - минимум температуры воздуха на высоте 2 м над землей.
Tmax - Максимальная температура - максимум температуры воздуха на высоте 2 м над землей.
R - Количество осадков - Количество выпавших осадков за период времени, мм. При наведении курсора мыши на число - период времени, за который выпало указанное количество осадков.
R24 - Количество осадков - Количество выпавших осадков за 24 часа, мм.
S - Снежный покров - Высота снежного покрова, см. При наведении курсора мыши на число - состояние снежного покрова и степень покрытия местности в баллах.